383P/Christensen (2019)

Japanese version
Home page
Updated on December 28, 2022

---------------------------------------------------------------------

* Profile

Designation 383P/2019 M1
Recovery Date June 25, 2019
Magnitude 19.9 mag
Recoverer K. Sarneczky (Konkoly Observatory)

* Orbital Elements

Epoch 2022 Aug. 9.0 TT = JDT 2459800.5                                          
T 2019 Oct. 26.53336 TT                                 Rudenko                 
q   1.4203404            (2000.0)            P               Q                  
n   0.14756860     Peri.  133.75928     +0.94104285     +0.32327794             
a   3.5465553      Node   207.82939     -0.33759277     +0.91631032             
e   0.5995155      Incl.   12.32473     +0.02166742     +0.23636152             
P   6.68                                                                        
From 368 observations 2006 Aug. 23-2019 Nov. 15, mean residual 0".7.            

* Magnitudes Graph

        m1 = 17.0 + 5 log d + 10.0 log r

---------------------------------------------------------------------

The orbital elements are published on M.P.E.C. 2022-O116.
The magnitudes graphs are made with Comet for Windows.

---------------------------------------------------------------------

Copyright(C) Seiichi Yoshida (comet@aerith.net). All rights reserved.